Starlink 31570

operational
NORAD ID: 59324 Int'l Des: 2024-057 Owner: SPXS Country: US Constellation: starlink
LEOCIRCULAR

Starlink 31570について

説明を読み込み中...

リアルタイム位置

3D地球を読み込み中...

次回通過

高度履歴

Altitude vs Time

uPlot chart will show altitude changes over time

軌道要素

1 59324U 24057E 25307.68410036 .00000997 00000-0 45784-4 0 9993
2 59324 43.0059 179.0755 0001959 261.0228 99.0402 15.27575117 90560
Epoch: Nov 3, 2025 • Age: 18 hours

現在のステータス

高度 485.6 km
速度 7.62 km/s
衛星直下点 -15.97°S, 170.13°E
打ち上げ日 Mar 25, 2024
運用期間 1.6 years
タイプ internet

技術仕様

分類 Payload
質量 730.00 kg
乾燥質量 700.00 kg
総質量 730.00 kg
長さ 0.30 m
直径 4.10 m
スパン 29.00 m
形状 Box + pan
製造者 SPXS
バスタイプ Starlink V2M
フェーズステータス In Orbit
所有者/国 SPXS/US

大規模コンステレーション

Loading constellations...